Theta_e
323 324 325 319 312 312 317 321 318 321 321 317 319 325 325 323 333 333 324 324 341 344 347 348 345 344 341 341 341 342 342 343 344 344 344 343 343 342 336 330 334 340 337 336 341 342 341 338 336
324 325 322 311 309 312 318 319 320 319 318 316 316 321 322 322 317 318 322 328 340 342 345 347 345 343 341 338 337 340 342 342 342 344 343 343 343 342 341 336 330 339 341 337 339 342 342 334 337
324 324 317 311 312 315 322 320 318 316 313 316 318 317 319 319 316 318 321 325 339 341 343 344 343 343 342 340 337 336 340 341 342 342 342 342 342 342 342 340 335 333 340 341 338 340 341 337 333
323 316 309 314 320 318 320 319 316 317 314 312 317 319 315 316 317 318 319 322 334 339 344 343 342 342 343 341 341 341 339 338 339 340 341 342 340 340 341 341 340 335 332 341 341 339 340 339 334
320 310 311 316 320 319 316 315 315 315 314 312 314 319 316 316 316 316 315 318 321 328 332 343 342 340 339 339 339 340 340 340 340 339 341 342 341 340 339 340 340 338 333 335 340 339 340 338 333
315 310 312 317 320 317 313 311 312 311 311 312 313 317 316 315 313 314 311 314 317 316 317 319 331 341 341 340 340 339 339 339 340 340 339 340 340 339 339 339 339 339 337 330 337 339 339 339 336
314 311 314 314 316 316 314 311 312 311 312 312 310 316 314 311 311 309 308 309 311 311 312 314 313 315 321 332 339 341 341 340 338 339 339 339 339 339 339 339 338 338 339 338 331 338 339 339 338
308 308 312 313 315 317 313 312 310 311 311 308 309 315 313 308 307 307 307 308 308 308 309 309 309 309 309 309 310 322 337 340 340 339 338 338 338 338 337 337 337 336 337 338 337 332 337 339 338
308 310 312 314 315 315 311 312 307 306 308 307 306 306 306 307 307 308 309 310 310 310 310 310 310 310 310 310 309 309 310 321 337 339 339 338 337 336 336 337 337 336 335 336 337 337 336 338 339
309 311 313 312 311 311 309 308 307 307 305 306 305 304 305 306 307 308 308 308 308 309 309 309 309 309 309 309 309 309 309 309 310 323 334 338 339 338 335 335 336 336 336 335 335 336 338 337 338
309 312 312 311 308 309 308 306 304 306 305 304 305 305 305 306 308 308 308 308 309 310 311 311 311 311 310 309 309 308 308 309 309 309 310 315 329 337 337 336 334 333 333 335 335 336 336 338 337
309 309 310 309 305 306 306 304 304 305 304 303 304 305 306 306 306 307 308 310 311 312 312 312 312 312 312 312 310 308 308 308 308 309 309 309 310 321 334 337 337 335 335 336 335 338 337 336 336
307 307 306 305 304 304 304 303 303 302 301 301 302 303 305 305 306 310 311 312 312 312 312 312 312 311 311 311 311 312 309 308 308 308 308 308 308 311 314 322 332 336 336 335 335 336 336 337 337
305 305 305 304 304 304 305 305 304 303 303 303 303 303 304 306 308 310 311 310 310 310 310 310 310 310 309 310 310 310 312 311 308 308 308 308 308 308 311 312 320 329 334 335 335 335 335 335 336
304 304 304 304 304 305 305 303 304 302 304 306 306 304 308 309 310 309 309 309 308 308 308 309 309 309 309 310 311 311 311 313 312 308 307 307 308 308 308 308 314 324 325 332 333 335 335 335 336
302 301 304 305 305 307 303 302 304 305 303 305 305 304 309 309 309 309 308 308 307 307 308 309 309 309 309 310 311 312 312 312 313 309 308 308 308 308 308 308 313 322 327 328 332 334 335 335 335
301 304 305 307 306 307 306 303 303 304 305 305 304 305 309 309 308 308 307 307 306 306 307 308 308 308 309 309 310 311 311 312 313 312 309 309 309 310 318 320 321 322 323 325 329 331 333 333 333
304 303 306 307 308 308 307 307 306 305 304 304 304 307 307 308 308 307 307 306 306 306 307 307 307 307 307 308 309 310 311 312 313 314 311 311 312 313 313 312 310 310 314 324 327 329 331 332 332
305 305 307 308 310 310 310 308 309 307 305 305 304 305 307 307 306 306 306 305 306 306 306 305 306 306 307 307 307 309 310 312 312 313 314 314 314 314 315 317 318 317 318 318 324 327 329 330 330
306 307 308 306 309 311 310 311 310 309 309 307 305 306 307 307 305 305 305 305 304 304 304 304 304 306 307 307 307 308 310 312 312 312 312 311 311 311 311 312 314 317 320 321 321 323 325 328 329
308 306 309 310 310 309 308 305 306 310 310 309 307 307 306 306 305 303 304 304 304 303 303 302 301 303 305 306 307 307 309 309 308 308 308 308 308 309 310 309 312 312 317 321 322 323 324 326 327
309 309 311 313 308 306 307 304 306 310 310 311 309 306 305 305 304 304 304 303 303 303 302 300 299 300 302 304 305 305 306 305 304 303 303 303 303 303 307 307 309 308 311 319 323 324 324 326 326
311 310 312 313 310 305 308 306 308 309 310 308 307 305 304 303 303 303 303 303 303 303 301 300 298 299 300 302 302 302 302 302 301 301 301 300 300 299 300 302 305 306 306 309 315 319 321 324 324
310 312 310 310 306 302 304 308 311 310 310 308 307 306 305 304 302 302 304 303 303 302 301 298 296 296 296 298 298 298 299 299 299 299 298 297 296 298 298 298 298 298 302 305 307 310 315 315 317
312 305 300 302 301 306 309 303 311 309 307 308 308 306 303 302 301 301 301 302 302 302 301 298 296 294 294 293 293 294 294 294 294 294 293 292 293 293 294 295 298 296 298 299 303 306 306 308 310
314 308 300 301 300 305 302 306 309 307 307 309 308 306 303 302 300 300 301 302 302 302 302 300 298 296 295 295 294 293 293 292 292 292 292 291 290 290 290 292 294 297 296 296 298 299 300 300 302
313 309 307 303 296 305 300 303 304 306 309 309 308 305 303 301 300 300 301 302 303 302 302 301 300 297 296 295 294 293 293 292 291 290 289 289 289 289 289 289 290 292 291 294 294 295 296 297 297
313 308 308 304 300 305 300 302 305 308 309 309 308 306 303 301 300 300 301 302 303 303 303 301 300 297 295 294 293 293 292 291 290 289 288 288 288 288 288 289 289 289 290 290 290 290 292 294 295
312 312 311 307 306 307 307 302 301 305 307 309 309 307 304 303 301 300 301 303 304 303 303 302 300 298 296 294 294 293 291 290 289 288 288 288 288 288 288 288 288 288 290 290 289 289 289 290 291
309 310 309 308 306 306 305 306 304 304 309 308 308 307 305 303 302 300 301 303 303 304 303 302 301 297 295 294 294 293 291 290 289 288 288 287 287 287 287 287 287 287 289 289 290 289 288 289 289
Wind_Speed
2 1 2 5 4 5 1 1 3 3 2 4 3 7 9 4 4 3 3 12 10 11 5 2 2 2 2 2 2 1 2 3 4 3 3 1 1 4 2 2 4 4 4 5 5 4 7 6 6
3 3 4 3 5 4 3 3 3 0 1 6 5 2 6 3 2 2 3 13 9 11 8 3 0 2 2 1 2 2 2 2 3 4 3 3 4 5 4 4 5 6 5 5 6 7 9 5 7
3 4 4 4 3 4 4 3 4 0 4 2 4 6 3 2 1 2 7 12 8 9 10 6 2 2 2 2 2 2 3 4 4 5 5 5 6 7 7 6 6 8 9 8 8 8 11 6 7
2 5 4 4 3 1 4 3 2 1 4 7 3 6 3 3 1 3 7 11 9 8 10 6 4 4 4 4 4 4 5 6 6 7 7 7 7 8 8 9 8 9 11 10 11 11 13 9 8
5 3 4 4 2 2 1 2 1 2 3 5 3 3 3 2 3 3 8 9 12 9 11 10 7 4 5 5 5 7 8 8 9 9 9 9 10 10 11 10 11 11 11 12 12 12 14 12 11
4 3 5 4 3 2 1 3 2 3 3 3 5 4 1 1 2 4 7 8 8 9 11 11 11 9 6 5 6 8 10 11 12 12 12 13 14 13 13 12 13 13 14 13 15 15 16 16 13
5 4 4 5 6 2 1 2 3 3 2 3 1 4 1 1 2 3 6 7 7 8 8 10 11 11 11 10 10 9 10 12 14 14 15 16 16 16 16 16 15 15 16 16 16 17 18 19 17
4 4 4 1 5 3 2 2 2 3 1 5 1 4 3 2 1 3 5 6 7 9 11 11 12 13 14 14 14 13 14 14 14 15 17 18 18 19 19 19 19 18 18 18 17 19 19 21 20
3 5 3 6 6 4 1 3 1 1 1 3 3 4 4 3 3 4 6 8 10 10 12 13 14 14 15 15 15 16 16 16 16 16 17 18 21 22 22 23 22 22 21 20 20 21 22 21 21
5 4 6 1 2 4 2 2 1 2 3 1 2 3 2 2 4 5 8 10 11 11 12 14 14 15 16 16 16 16 16 16 17 18 20 21 22 23 23 25 24 24 25 25 24 24 24 23 25
2 3 4 2 2 2 3 2 3 3 3 4 4 2 1 2 3 7 9 9 9 11 13 16 17 18 18 18 18 18 18 18 17 17 20 21 23 22 24 26 26 27 27 28 28 26 26 27 27
6 4 3 1 4 3 2 2 3 2 3 6 1 2 1 2 8 9 10 10 12 13 16 18 20 21 20 20 20 20 20 19 20 20 20 21 23 24 26 26 28 29 27 27 29 30 30 29 30
5 2 4 4 6 3 0 1 3 6 8 6 5 5 5 7 8 10 8 10 12 16 20 22 24 23 24 24 23 21 20 20 20 20 21 22 23 25 25 28 30 31 30 32 31 33 33 33 32
3 5 3 4 2 2 2 0 4 4 1 3 5 5 4 6 7 7 10 13 15 17 20 22 22 22 24 24 24 24 23 22 21 22 22 23 23 24 27 29 30 31 33 38 35 38 36 36 36
4 4 2 4 3 2 2 3 6 4 2 4 2 6 7 8 9 10 9 11 14 16 18 19 20 21 22 23 23 23 21 22 23 23 22 22 22 24 26 29 31 31 31 33 36 36 36 34 35
5 5 2 2 3 2 3 7 3 3 6 5 5 0 6 4 7 7 7 10 14 16 18 19 20 21 23 23 22 21 21 19 20 21 21 20 21 23 26 29 30 29 31 31 30 34 30 30 30
6 3 1 4 2 3 2 6 4 2 4 6 7 2 7 5 4 5 7 11 13 16 17 19 20 22 23 22 21 21 22 17 16 18 18 19 22 22 22 24 26 27 28 29 27 27 28 28 30
4 3 0 1 5 3 4 13 10 8 6 10 7 6 6 5 1 3 6 11 12 16 16 18 20 22 22 19 21 22 22 18 15 16 17 18 20 22 24 27 29 27 27 23 24 27 29 29 32
5 4 2 1 1 4 5 10 17 9 9 10 8 8 7 5 0 3 6 11 12 15 16 18 20 20 20 21 20 18 18 21 18 17 17 18 19 21 22 25 28 27 24 22 23 25 26 25 29
5 3 2 4 2 3 5 15 17 8 6 6 8 8 7 4 2 3 6 12 11 13 13 15 16 15 16 17 16 13 14 14 13 18 19 21 24 25 24 25 28 26 27 23 22 23 20 22 25
4 4 1 2 7 1 8 8 4 1 2 4 6 5 4 4 3 4 7 8 9 11 11 11 12 11 12 14 14 15 7 11 17 20 17 18 20 21 23 23 23 24 23 22 20 20 20 20 21
2 1 2 1 5 2 4 5 7 1 2 2 5 5 6 4 2 2 4 6 7 8 7 8 9 10 10 12 11 12 9 7 9 13 13 15 19 18 18 23 19 21 18 13 18 16 21 20 16
2 1 1 1 2 3 2 2 8 2 4 7 8 8 7 6 5 5 7 6 7 6 7 7 7 9 11 12 11 9 8 10 11 14 16 15 17 21 23 21 20 21 22 16 7 4 10 14 22
2 2 3 3 3 2 4 3 6 4 5 4 4 8 7 7 6 7 8 7 8 5 6 5 6 7 9 10 11 14 15 14 16 17 18 18 18 21 22 24 24 24 21 19 19 13 2 12 13
2 4 3 5 4 5 1 2 11 6 6 6 9 9 8 6 5 6 7 8 8 7 4 4 4 6 7 9 11 12 12 13 15 16 18 21 24 27 24 21 20 21 23 22 18 16 21 15 11
1 4 4 5 2 5 4 6 6 2 6 3 3 3 5 6 6 7 10 10 10 9 6 4 2 3 5 6 8 8 9 11 12 13 15 17 18 17 17 17 18 18 17 19 19 20 18 16 16
2 1 2 5 2 2 3 8 10 5 5 3 5 4 8 8 8 8 12 13 12 12 9 7 4 3 2 4 4 6 8 9 10 10 11 12 14 16 16 16 16 17 18 16 15 17 16 15 17
1 5 3 3 2 5 5 6 6 5 7 7 9 10 9 8 8 8 12 15 14 12 11 9 8 6 4 4 4 4 5 6 8 10 11 12 12 12 12 13 14 15 15 16 15 16 14 13 16
2 1 2 3 4 4 4 6 7 7 8 10 12 9 9 9 9 8 13 17 15 13 13 12 10 8 7 6 6 5 4 6 7 8 10 11 12 14 14 13 13 13 12 15 16 15 15 14 13
4 7 6 4 5 4 1 8 3 8 6 6 9 8 7 8 9 8 15 18 17 17 16 16 14 13 10 8 7 6 5 5 7 8 10 11 12 13 14 12 11 10 8 12 14 15 15 15 15
Wind_Direction
93 36 102 51 63 66 40 63 297 37 58 350 332 92 123 68 59 144 291 339 345 1 6 324 245 257 226 223 261 239 215 199 194 212 226 189 166 305 302 231 191 180 190 194 208 220 164 163 162
42 99 66 78 88 84 271 287 100 95 195 142 79 77 45 77 36 6 25 351 351 1 2 332 289 276 285 241 252 240 231 230 241 241 248 244 240 247 282 267 236 214 214 225 228 238 198 181 182
82 55 81 94 104 147 167 194 164 80 10 104 99 51 69 46 56 58 5 2 4 13 20 24 276 289 274 272 276 272 264 248 246 245 258 261 253 258 260 269 258 238 225 225 235 249 207 218 211
126 26 36 79 103 61 167 182 231 162 23 34 113 63 47 4 56 47 21 23 25 8 23 40 25 329 299 270 273 269 265 261 259 257 260 268 272 258 263 261 265 260 252 256 233 232 217 231 228
57 54 66 80 92 94 357 353 302 75 61 11 6 135 68 35 80 42 27 26 34 29 20 13 17 8 352 329 307 293 280 274 269 264 259 251 256 267 269 264 265 260 256 250 244 232 228 233 233
49 96 70 144 142 119 351 334 65 48 19 3 61 85 185 120 44 36 16 27 23 23 21 22 13 360 352 337 325 314 303 289 277 270 264 261 264 267 266 264 266 265 259 249 239 247 239 240 239
109 83 141 131 148 160 160 328 74 103 41 30 152 92 200 108 51 43 24 19 26 15 8 12 11 7 354 344 333 316 312 297 290 281 275 272 268 267 266 267 267 263 258 257 252 245 246 243 241
100 90 97 100 178 198 356 77 116 79 193 303 137 152 191 188 97 28 41 34 26 22 22 12 359 350 343 337 336 322 310 307 290 286 286 280 275 272 270 267 264 263 261 257 252 249 252 250 244
102 65 128 167 162 164 325 119 5 341 33 16 23 125 145 133 15 38 36 23 18 16 12 5 358 349 339 334 334 328 319 308 298 289 281 280 280 277 273 270 268 265 261 258 254 250 250 254 246
71 89 182 253 126 145 106 104 350 135 16 39 88 84 122 59 62 43 23 19 16 20 19 8 358 351 342 334 326 322 319 316 307 300 296 291 289 281 282 277 272 270 266 263 257 252 250 248 244
64 133 147 15 91 84 114 110 313 142 222 210 178 202 179 104 30 24 39 46 46 21 10 1 350 343 335 329 328 321 316 310 307 308 304 300 297 297 283 279 276 271 268 264 259 254 249 246 244
92 51 85 115 12 41 91 342 303 220 239 146 78 293 16 4 27 33 62 37 21 9 1 352 347 339 333 329 324 319 320 318 310 302 302 305 298 293 290 287 280 275 270 268 257 256 252 246 245
78 94 59 77 50 65 31 353 281 265 258 264 275 293 293 12 62 73 64 40 16 1 349 343 338 335 331 326 322 320 315 308 307 308 303 304 303 299 295 291 286 281 278 270 260 255 255 250 245
75 84 84 47 32 42 356 288 12 271 301 187 193 222 35 71 97 70 42 21 7 352 344 338 335 334 331 329 324 313 314 317 310 301 299 300 301 300 298 295 292 287 283 277 276 261 255 254 250
108 74 21 24 32 18 29 281 236 246 277 154 167 59 99 93 81 67 37 17 360 349 343 346 346 343 340 338 335 332 314 314 314 315 309 305 305 304 303 303 300 291 292 285 279 269 258 257 254
62 54 74 334 13 21 34 271 270 220 179 200 324 249 139 106 93 66 24 6 357 352 353 349 349 347 346 343 340 340 335 321 322 322 318 319 310 309 307 303 300 297 296 295 283 266 258 253 252
12 146 172 329 27 339 90 277 295 121 175 245 295 241 154 133 85 50 14 3 0 2 357 352 353 353 349 347 344 340 342 334 329 329 329 327 326 324 318 312 308 305 298 295 287 270 257 253 254
180 132 96 267 349 344 282 268 262 264 253 261 260 170 167 161 103 14 1 360 1 2 1 357 356 358 352 347 342 345 347 345 344 339 334 332 328 323 318 311 304 303 298 289 283 275 260 250 255
105 85 71 267 112 341 244 275 279 245 240 253 230 187 184 186 263 353 355 359 360 4 3 5 3 5 351 352 346 339 332 346 355 1 352 343 337 334 329 322 315 302 290 281 280 274 267 255 255
59 89 327 292 317 350 317 290 281 275 239 232 187 178 182 200 259 321 359 7 2 356 0 5 6 7 2 359 355 343 343 10 16 11 10 3 349 343 338 331 316 310 292 273 270 274 262 260 250
42 111 66 237 322 256 327 294 313 354 78 64 106 144 182 213 292 344 356 355 346 350 354 354 358 2 358 4 9 15 12 13 9 2 359 356 341 343 346 341 325 321 296 267 260 262 261 259 252
118 172 92 31 33 275 26 276 296 323 188 179 174 190 208 232 275 283 298 316 324 337 342 349 353 359 5 14 20 27 28 19 4 5 6 357 4 356 357 2 346 337 342 300 265 256 262 249 254
163 164 184 186 84 30 353 55 270 351 239 232 222 226 229 230 233 253 261 274 300 313 334 345 0 18 29 36 38 39 38 26 22 20 20 25 26 25 20 11 10 356 2 6 333 9 254 250 247
102 91 45 40 86 13 249 127 282 225 210 226 207 223 224 225 240 254 263 273 283 301 319 353 25 29 38 47 50 49 46 39 32 29 24 20 19 31 24 17 21 17 10 17 34 27 24 67 62
100 58 343 351 7 227 183 53 246 247 232 216 204 210 219 224 245 250 251 257 269 275 310 348 23 32 38 38 41 38 36 35 32 22 17 19 12 14 13 12 12 18 18 20 20 30 43 46 58
140 122 146 233 274 286 356 244 256 240 304 246 158 173 203 233 240 243 247 253 259 268 274 283 312 357 13 21 26 28 28 26 22 14 10 14 17 15 9 4 1 10 19 21 27 40 45 46 59
147 52 171 102 88 3 262 287 292 253 228 240 234 229 237 236 236 236 242 240 245 250 256 258 261 283 342 7 18 18 17 20 23 21 20 19 17 14 9 13 12 14 16 17 26 40 40 49 54
122 155 56 16 360 291 285 273 239 294 235 220 233 232 238 237 238 235 233 237 239 246 253 256 258 269 294 319 336 350 3 7 10 8 12 16 15 16 11 7 12 16 19 23 23 32 38 41 53
126 198 103 124 164 204 296 261 215 232 222 216 229 224 226 228 230 232 232 235 238 242 245 248 248 251 259 269 285 306 337 354 1 7 6 5 2 4 9 8 3 6 18 23 24 26 24 33 39
180 193 156 142 225 234 203 270 248 246 265 249 253 240 237 227 229 224 229 234 232 233 236 242 244 246 249 254 264 279 303 330 350 358 0 357 355 354 356 2 11 22 30 22 33 30 24 29 33